Location: Mahannah Oil Field
(37.4664°N, 96.6003°W)
Time: 03:02:58
(UTC+00:00)

Tiros 1 despin weight - Pass Details

Date: 31 January 2021
Orbit: 593 x 642 km, 48.2° (Epoch: 02 March)

Event Time Altitude Azimuth Distance (km) Brightness Sun altitude
Rises 21:54:46 0° 304° (NW) 2,890 ? 18.8°
Reaches altitude 10° 21:57:24 10° 317° (NW) 1,973 ? 18.4°
Maximum altitude 22:01:13 26° 15° (NNE) 1,202 ? 17.8°
Drops below altitude 10° 22:05:00 10° 73° (ENE) 1,945 ? 17.2°
Sets 22:07:35 0° 86° (E) 2,839 ? 16.8°
